Probability
0 0 0 0 0 0 0 0 0 0 2 4 5 6 6 5 4 4 5 6 8 11 13 19 26 27 22 16 11 8 7 7 7 7 6 6 5 4 3 3 3 3 3 2 1 1 1 2 3
0 0 0 0 0 0 0 0 0 1 3 5 6 6 5 4 4 5 5 5 8 11 14 20 28 30 26 19 13 9 7 7 7 7 7 6 4 3 3 3 3 3 3 3 2 2 2 3 3
0 0 0 0 0 0 0 0 1 2 4 5 5 4 3 2 3 4 6 6 8 10 13 22 30 33 30 24 18 13 9 7 7 7 7 6 5 4 3 3 3 3 4 4 4 3 3 2 2
0 0 0 0 0 0 0 0 1 3 4 4 3 2 2 3 6 9 11 11 10 10 16 24 32 35 33 29 24 18 13 9 8 7 7 7 7 5 4 3 3 3 3 4 3 2 1 1 1
0 0 0 0 0 0 0 0 2 3 3 4 4 4 5 8 14 19 21 19 15 16 21 27 33 36 35 32 27 22 17 13 9 8 8 9 9 8 6 5 4 3 3 3 1 1 0 0 0
0 0 0 0 0 0 0 0 1 3 5 6 7 7 9 12 19 24 27 25 20 20 24 29 34 36 36 33 28 24 20 15 11 10 9 10 10 9 8 7 6 4 4 3 1 0 0 0 0
0 0 0 0 0 0 0 0 1 3 7 9 9 10 10 13 18 24 29 29 24 21 24 30 33 35 35 33 29 25 21 18 14 11 11 11 10 9 9 8 7 6 5 4 1 0 0 0 0
0 0 0 0 0 0 0 1 2 4 8 10 10 10 11 14 20 26 31 32 29 25 26 28 29 31 32 31 29 27 23 19 15 13 12 12 11 9 8 8 7 7 5 4 2 1 0 0 0
0 0 0 0 0 0 0 1 2 5 8 11 12 12 13 17 24 29 31 31 30 28 26 25 25 25 26 27 28 27 23 18 15 13 13 12 10 8 7 7 8 8 6 5 4 2 1 1 1
0 0 0 0 0 0 1 2 2 5 9 12 14 16 17 20 26 29 27 26 27 27 25 23 22 21 21 23 26 26 22 17 14 14 14 12 9 7 6 6 8 7 7 7 8 5 3 2 3
0 1 1 1 0 1 2 2 2 5 8 11 15 18 19 21 25 26 23 21 23 25 25 23 21 21 21 22 25 25 22 19 15 13 13 12 10 7 6 6 7 7 8 9 10 8 5 5 5
0 1 1 1 1 2 2 1 3 5 8 11 15 18 19 19 21 23 22 20 20 22 23 22 22 23 23 23 24 25 24 21 16 12 11 11 9 8 7 6 6 7 9 9 9 8 7 7 6
0 0 1 1 1 1 1 1 2 6 10 13 16 17 17 16 17 20 21 21 21 21 19 19 20 21 22 22 22 24 24 20 16 13 10 9 8 7 7 6 5 5 7 8 7 6 6 6 6
0 0 0 1 1 0 0 0 1 5 9 13 15 15 14 14 15 18 21 23 25 25 21 18 17 18 19 20 20 21 19 17 15 13 10 8 7 6 6 5 3 2 3 5 5 5 4 4 4
0 0 0 0 0 0 0 0 1 4 7 10 12 12 13 15 18 20 21 24 27 28 24 19 16 16 17 17 17 17 15 13 13 13 10 8 7 6 6 4 2 1 1 3 5 5 4 3 3
0 0 0 0 0 0 0 1 2 3 5 7 8 11 13 16 19 21 20 21 25 26 24 20 16 15 16 17 16 14 13 12 12 12 11 9 7 7 5 3 2 1 2 4 6 5 4 3 3
0 0 0 0 0 0 0 2 2 3 3 4 6 9 12 14 16 18 19 19 22 23 22 19 17 16 18 19 17 15 14 12 11 11 9 8 8 7 4 2 1 2 3 5 6 5 4 3 3
0 0 0 0 0 0 0 1 2 3 3 2 4 7 10 11 12 16 19 19 18 19 20 20 19 18 20 20 19 17 15 13 11 9 8 7 7 7 5 4 3 4 5 5 4 3 3 2 2
0 0 0 0 0 0 0 0 2 3 3 2 2 5 8 10 11 15 20 19 16 17 19 21 21 19 19 19 19 19 18 14 11 9 7 6 6 6 5 5 5 6 6 4 2 1 1 1 1
0 0 0 0 0 0 0 1 2 2 2 2 2 4 7 10 12 17 22 19 15 15 17 20 20 19 18 18 19 19 18 14 11 9 7 6 6 5 4 4 4 5 6 4 2 1 1 1 0
0 0 0 0 0 0 0 1 1 1 1 1 3 5 8 11 14 19 23 20 15 13 14 16 16 16 17 17 17 18 16 13 12 10 9 8 7 5 4 3 3 4 5 4 2 2 3 2 1
0 0 0 0 0 0 0 0 0 0 0 1 5 7 10 12 14 17 21 19 14 12 12 12 12 14 15 16 16 15 13 11 11 12 11 9 7 6 6 3 2 3 4 3 1 2 3 3 2
0 0 0 0 0 0 0 0 0 0 0 2 5 7 10 11 11 13 16 16 13 11 11 11 12 13 14 15 15 13 11 10 10 11 11 11 9 8 7 5 3 2 1 1 0 1 2 2 2
0 0 0 0 0 0 0 0 0 1 1 3 6 7 8 10 11 12 15 14 12 11 11 11 11 12 14 14 14 12 10 9 9 8 9 10 9 9 9 8 6 4 2 0 0 0 1 1 1
0 0 0 0 0 0 0 0 0 0 1 4 7 8 8 9 11 13 15 14 14 13 12 11 10 11 12 13 13 11 9 8 7 6 6 7 7 8 9 8 7 6 4 2 0 0 0 0 0
0 0 0 0 0 0 0 0 0 0 1 3 6 9 9 9 11 13 13 13 14 14 12 11 11 11 11 12 12 10 9 8 7 6 5 5 5 5 5 6 6 6 6 4 2 1 0 0 0
0 0 0 0 0 0 0 0 0 1 1 2 6 8 8 8 10 12 11 10 12 14 13 12 12 12 12 12 11 10 9 8 7 6 5 4 3 3 2 3 5 5 6 6 5 3 2 0 0
0 0 0 0 0 0 0 0 0 0 1 3 5 7 7 6 8 10 9 7 8 11 12 11 11 11 11 11 10 8 7 5 5 4 4 3 2 2 1 1 2 3 4 5 5 5 3 1 0
0 0 0 0 0 0 0 0 0 0 1 2 4 5 5 4 6 7 6 4 5 6 7 7 8 8 8 8 7 6 5 4 3 3 3 3 1 1 1 0 0 1 2 4 4 4 4 2 1
0 0 0 0 0 0 0 0 0 0 0 1 3 4 4 3 5 5 4 3 3 4 4 5 6 6 6 6 6 6 5 4 3 3 3 2 1 0 0 0 0 0 1 3 3 3 3 3 3
Wind_Speed
3 2 1 3 5 4 3 5 2 1 2 3 6 8 7 4 3 4 2 9 13 13 10 13 15 15 15 15 15 15 14 14 14 13 13 13 13 12 12 12 11 10 10 11 10 10 9 9 9
2 1 2 4 4 1 5 4 0 1 3 4 6 7 6 5 6 8 5 9 13 13 10 12 16 16 16 15 14 14 14 14 13 13 12 12 12 11 11 11 10 9 9 10 10 9 8 8 7
2 1 3 4 2 4 4 3 2 0 2 3 4 4 4 5 6 6 7 13 12 10 9 12 17 16 16 15 15 14 14 14 13 12 12 11 11 10 10 10 10 9 9 9 9 8 7 7 6
1 3 4 3 4 6 6 6 3 0 1 4 6 5 3 2 4 8 13 14 13 10 8 11 16 16 16 16 15 15 14 13 13 12 11 11 10 10 9 9 9 8 8 8 8 8 6 6 5
3 3 3 2 5 5 5 6 4 2 1 3 7 6 3 3 9 14 13 13 13 9 8 10 15 16 15 15 15 14 14 13 12 11 11 11 10 9 9 8 8 8 8 7 7 7 6 5 4
3 4 2 3 6 4 4 3 2 2 4 4 8 6 2 3 9 11 12 11 11 11 9 9 15 16 15 15 14 13 13 12 12 11 10 10 10 9 8 8 8 8 7 7 6 6 6 5 4
3 2 3 4 4 4 4 0 2 3 4 4 8 7 4 3 7 10 11 10 10 10 9 7 7 10 14 14 13 12 12 11 11 11 10 10 10 10 9 9 8 8 7 7 6 6 5 4 3
5 3 2 3 3 5 4 1 1 4 3 4 6 8 7 7 8 10 10 9 9 8 7 7 6 6 6 8 12 13 11 11 11 11 11 10 10 10 9 8 8 8 7 6 5 5 4 4 3
3 2 4 5 4 5 3 0 1 1 4 2 2 5 8 11 11 10 9 8 8 8 6 6 6 6 5 6 9 9 10 10 9 8 9 8 4 4 5 7 8 8 6 6 5 4 4 3 3
4 4 9 7 5 4 3 1 2 2 3 3 5 6 10 10 10 10 10 10 9 9 8 7 7 7 6 6 5 4 5 5 4 3 4 3 3 3 4 6 7 6 6 5 5 4 3 2 1
4 7 8 8 7 5 4 2 1 5 2 5 8 10 10 9 8 9 9 10 10 10 9 7 7 7 6 4 4 3 2 3 3 3 4 3 3 2 2 2 2 2 3 1 2 1 1 1 1
4 7 8 8 6 4 4 2 1 3 6 9 11 13 11 9 8 8 9 9 8 8 8 8 7 7 6 5 4 4 3 3 3 3 4 3 2 3 2 2 2 1 1 1 1 0 0 0 1
4 7 7 7 4 3 3 2 3 3 5 8 11 12 11 9 7 6 8 9 10 9 8 8 8 7 6 5 4 5 4 4 3 3 4 4 4 3 3 2 2 2 1 2 1 1 1 1 1
5 5 7 7 5 3 3 3 3 4 6 8 10 10 10 10 9 7 8 8 8 9 8 7 7 7 6 5 5 5 5 4 3 3 4 5 4 4 3 3 2 1 1 1 2 2 2 1 1
3 5 9 7 4 4 3 2 3 7 7 8 9 9 9 9 9 9 9 9 9 9 8 8 8 7 7 6 5 5 4 5 4 3 4 5 4 4 4 3 2 2 1 1 1 1 1 1 1
4 3 5 7 3 3 4 4 6 6 7 7 7 8 8 6 7 7 8 8 8 8 8 8 8 7 6 5 5 4 4 4 4 4 4 5 5 5 4 3 2 2 2 1 2 1 1 1 1
3 3 5 7 5 2 3 5 6 5 7 7 6 7 7 6 6 6 8 8 8 8 8 7 7 7 6 5 4 4 4 4 3 3 3 4 5 5 4 3 2 3 2 1 1 1 1 1 1
6 5 5 6 6 1 2 5 5 5 6 7 7 7 7 7 7 7 8 8 7 7 7 7 6 6 5 4 3 3 3 2 2 3 3 5 4 5 4 3 3 3 2 1 1 1 1 1 1
8 7 8 9 6 1 3 5 5 3 4 6 6 7 7 7 5 7 7 8 7 6 6 7 6 5 5 4 4 3 3 3 2 2 4 5 4 4 4 3 3 3 2 2 2 1 1 1 1
9 8 8 7 4 2 2 3 4 3 5 6 7 7 7 5 5 6 6 6 7 7 6 6 6 6 5 4 3 3 3 3 3 2 3 4 5 4 4 3 3 3 2 2 1 2 1 1 1
9 8 8 6 4 2 1 3 3 3 2 3 4 5 6 8 8 7 7 6 6 6 6 6 6 6 5 5 3 3 2 2 1 2 2 3 4 4 4 4 3 3 3 2 2 2 3 2 1
7 7 6 4 0 3 2 2 6 4 2 3 4 4 5 7 8 8 8 7 7 7 6 5 5 5 5 5 5 5 4 3 3 3 3 3 3 4 4 4 4 3 3 3 3 3 2 3 2
7 5 3 2 1 1 1 2 6 1 3 4 4 5 5 7 8 8 9 8 8 7 6 5 5 4 4 5 5 5 3 2 2 2 3 2 2 3 3 4 3 3 3 3 3 2 2 2 3
2 3 5 4 4 1 4 3 5 4 6 4 4 4 5 6 6 6 6 6 6 5 5 6 6 4 4 4 5 5 5 4 4 3 3 2 1 1 2 3 3 3 3 3 3 3 3 3 2
3 5 4 5 4 4 3 2 6 6 5 6 6 5 5 5 6 6 7 7 7 7 7 6 6 4 4 4 5 5 5 5 5 4 3 2 2 2 3 3 3 3 3 3 3 3 3 3 3
3 7 6 5 4 4 2 2 5 4 2 5 5 5 5 5 6 7 7 7 7 8 7 7 6 5 4 4 4 4 4 3 3 3 3 3 3 3 3 3 3 4 4 3 3 3 3 3 3
3 3 7 6 2 1 3 2 3 2 2 3 4 5 5 5 5 6 6 6 7 7 7 7 7 6 5 4 4 4 4 3 3 3 3 2 2 2 3 3 3 3 3 3 3 2 3 3 3
5 4 4 4 3 3 3 3 4 3 3 3 4 5 4 5 5 5 5 5 5 6 6 6 6 6 5 4 4 4 4 4 4 3 3 3 3 2 2 2 2 2 3 3 2 2 3 3 3
1 1 3 3 4 5 3 6 4 7 6 5 5 6 6 6 6 5 5 5 5 5 5 5 5 5 4 4 4 4 3 3 3 3 4 3 3 2 2 2 2 2 2 2 2 3 3 3 3
3 4 5 4 3 3 3 6 3 5 5 5 4 4 5 6 6 5 5 4 4 5 5 5 5 5 5 5 5 4 4 3 3 3 3 3 3 2 2 2 2 2 3 3 3 3 3 4 4
Wind_Direction
242 227 139 66 50 44 287 261 225 351 22 55 90 96 99 85 120 140 150 134 137 142 144 140 135 132 130 128 126 123 121 119 117 118 118 117 116 114 114 114 114 116 117 115 113 111 109 107 107
231 202 73 62 78 30 281 256 211 193 146 106 79 83 79 76 91 114 124 139 141 142 145 142 139 136 134 132 130 129 127 126 125 126 125 124 122 120 120 120 120 118 118 118 118 116 113 109 106
253 174 89 77 125 194 242 252 226 248 141 114 90 66 80 113 119 139 150 142 137 138 143 146 142 140 139 137 136 135 133 132 131 131 132 130 127 125 124 125 125 122 120 122 120 118 115 112 109
55 48 52 76 248 238 222 241 216 47 27 74 102 75 66 100 131 143 141 139 136 138 143 147 144 143 143 143 142 141 140 139 138 137 138 137 135 134 132 132 132 130 128 126 125 123 121 122 117
69 75 49 316 260 258 239 231 198 163 125 99 101 98 71 32 112 131 138 138 138 141 145 148 147 146 146 146 147 147 146 145 144 143 143 143 143 141 139 140 138 138 137 135 135 135 139 141 133
52 72 77 270 269 274 269 228 142 115 118 114 105 110 106 127 126 139 140 142 143 147 147 151 153 152 150 150 150 150 151 151 149 149 150 151 151 150 148 147 145 143 142 146 148 148 153 153 148
126 117 208 244 275 290 278 178 118 142 135 152 135 121 146 168 148 144 138 136 137 141 141 144 150 152 152 151 152 153 153 156 156 156 158 159 160 158 157 156 155 153 153 156 159 158 160 163 162
157 119 273 263 270 277 279 44 129 135 140 138 129 139 168 181 152 136 132 132 127 129 135 140 143 145 149 152 157 156 159 160 161 164 165 167 168 167 168 165 163 163 165 167 168 168 170 173 173
133 98 250 243 235 261 275 82 330 87 103 97 112 147 160 150 137 129 129 126 133 139 143 148 149 149 153 155 160 160 163 165 164 166 170 168 170 173 172 175 173 174 174 176 179 180 179 181 176
131 180 234 229 212 236 268 213 175 84 77 84 84 95 128 134 135 138 144 146 153 156 158 155 155 157 158 161 151 157 163 162 159 161 163 158 161 174 173 180 179 178 179 185 187 180 181 171 152
185 207 242 252 239 229 254 262 136 123 138 176 151 145 144 140 142 147 154 155 163 162 160 160 162 161 160 154 152 159 159 153 155 161 159 152 148 155 157 155 168 169 169 174 188 183 185 173 158
235 253 245 250 246 240 240 206 127 155 185 173 158 153 152 152 158 160 157 156 151 154 164 162 162 159 160 155 157 153 155 154 160 164 158 147 142 139 145 149 149 137 145 152 154 169 190 202 170
257 268 272 261 257 234 225 216 167 181 169 153 144 144 155 156 159 158 150 148 146 152 163 166 161 158 156 155 163 153 156 158 160 157 156 149 148 149 147 147 146 162 164 170 184 184 193 183 172
252 274 285 277 266 242 201 229 141 201 163 145 149 157 158 160 158 147 143 145 151 154 158 163 160 161 156 158 161 155 155 152 152 160 162 154 151 153 151 145 148 168 178 181 178 176 175 179 174
286 311 307 283 261 239 167 294 217 197 165 152 158 161 159 163 158 157 162 159 159 158 156 157 161 160 156 155 159 154 154 153 159 170 166 155 153 152 149 148 161 181 174 146 131 129 130 146 159
345 327 292 287 274 243 140 235 240 194 159 164 170 162 159 159 160 160 157 155 155 153 155 160 154 148 148 148 149 148 150 152 164 171 168 159 157 151 146 154 163 163 142 134 135 126 116 119 147
334 269 264 286 282 239 152 219 231 197 157 168 167 161 159 158 163 163 154 152 151 150 151 151 146 148 147 144 143 144 144 153 161 160 156 158 154 153 151 162 164 151 138 145 163 135 132 142 179
245 255 264 271 279 234 203 229 226 197 160 164 163 161 166 170 176 170 157 150 144 144 144 143 141 143 143 139 127 123 120 134 142 152 158 156 155 155 150 157 156 149 142 148 146 142 148 158 177
237 254 268 268 265 222 236 235 233 212 160 162 166 173 177 182 176 154 156 150 140 137 137 143 143 144 141 145 150 145 156 163 159 168 161 153 149 146 147 150 148 154 160 170 171 162 154 171 118
244 251 262 277 271 200 221 252 240 213 190 176 169 178 178 164 156 155 154 153 149 148 144 145 152 154 157 156 161 157 156 170 173 170 155 160 152 151 152 148 154 162 154 146 159 145 139 158 133
260 238 240 246 292 323 70 317 279 271 201 158 162 167 163 161 160 157 159 160 152 151 160 163 160 157 155 147 126 113 95 90 112 135 157 172 161 156 156 163 164 168 164 176 189 172 158 167 210
260 251 233 231 243 282 170 248 273 243 212 178 172 168 173 175 167 165 166 168 166 167 163 160 159 154 150 145 147 149 155 167 182 175 177 175 170 167 167 172 178 177 175 179 192 179 172 161 188
239 249 237 236 193 315 340 164 273 241 214 213 190 182 181 179 175 176 174 174 170 162 155 153 144 145 150 150 153 150 153 166 162 155 159 168 181 184 182 177 180 186 188 189 189 186 184 178 180
215 44 18 27 64 312 244 177 262 235 212 200 184 183 183 175 174 173 166 156 148 145 146 145 141 145 152 158 160 157 160 159 154 164 168 174 185 202 197 184 187 191 194 197 196 194 195 197 190
64 78 26 356 4 258 264 177 244 245 203 183 181 187 183 167 160 152 151 150 152 155 158 154 150 155 162 159 164 167 165 163 169 174 176 171 178 200 208 197 198 200 205 206 198 193 206 201 196
212 144 162 202 225 266 306 234 258 263 190 167 165 163 152 148 155 158 161 157 159 160 160 158 155 160 167 165 166 163 162 165 172 175 173 182 192 204 205 201 205 208 203 202 196 201 210 203 208
184 192 178 154 201 233 259 247 298 352 89 109 134 140 153 161 158 155 154 156 163 161 163 166 164 164 170 169 158 156 160 158 162 169 170 175 195 204 201 201 205 207 198 196 190 207 220 212 212
169 164 91 118 168 243 260 235 227 220 183 155 151 157 166 159 148 141 144 155 164 163 163 163 167 173 174 170 170 164 167 166 167 163 171 183 198 207 206 209 204 207 202 197 194 211 221 214 223
298 113 118 136 164 169 237 263 226 192 189 177 183 180 169 161 156 154 155 159 158 152 154 158 162 166 173 174 169 160 166 169 165 168 183 185 186 189 190 194 195 204 210 201 197 220 216 215 227
195 186 149 156 236 180 184 259 274 179 182 169 170 170 156 156 156 154 154 146 142 158 166 168 170 171 180 177 169 170 169 164 169 182 190 184 184 191 193 189 196 211 223 213 204 222 226 218 221